Location: Myra
(43.4160°N, 88.0960°W)
Time: 21:01:47
(UTC-06:00)

Daily predictions for brighter satellites

Satellite Brightness Start Highest point End
(mag) Time Altitude Azimuth Time Altitude Azimuth Time Altitude Azimuth
Cosmos 2123 Rocket 4.2 17:49:11 10° S 17:55:22 81° W 18:01:35 10° N
Lacrosse 5 2.0 17:51:17 10° NW 17:56:22 83° SW 18:01:25 10° SE
ATLAS 3B R/B 3.1 17:50:11 10° SW 17:57:26 71° NW 18:04:24 10° NNE
Cosmos 2219 Rocket 2.9 17:52:06 10° NNW 17:57:41 61° WSW 18:03:13 10° S
Cosmos 44 4.1 17:53:20 10° NNW 17:57:55 35° NE 18:02:40 10° ESE
NOSS 3-2 (A) 3.5 17:52:54 10° SSW 17:58:47 79° ESE 18:05:21 10° NE
CZ-4C R/B 4.4 17:54:48 10° NNW 17:58:48 16° NNE 18:03:07 10° NE
MOS 1 4.3 17:53:26 10° SSE 17:59:02 68° ENE 18:04:42 10° N
Cosmos 405 3.8 17:56:11 10° SSE 17:59:16 29° E 18:02:22 10° NNE
YAOGAN 1 2.9 17:55:52 10° S 18:00:11 75° WSW 18:04:32 10° NNW
NOAA 12 4.1 17:56:03 10° SSE 18:01:17 67° ENE 18:06:35 10° N
NOSS 0 Rocket 4.2 17:55:47 10° NNW 18:01:59 80° WSW 18:08:11 10° SSE
Cosmos 1624 Rocket 4.1 17:58:32 10° NNW 18:03:48 85° WSW 18:08:59 10° SSE
Cosmos 1862 4.1 18:00:34 10° SSW 18:04:28 57° W 18:08:24 10° N
BREEZE-M R/B 3.4 18:03:04 10° NW 18:05:06 38° NNE 18:09:16 10° E
SJ-6B 4.2 18:03:16 10° ESE 18:05:47 17° ENE 18:08:21 10° NNE
SL-8 R/B 4.5 18:01:52 10° SSW 18:06:14 36° SE 18:10:35 10° ENE
Cosmos 1733 Rocket 3.2 18:02:05 10° SSE 18:06:15 50° E 18:10:26 10° NNE
Okean 3 4.2 18:02:43 10° NNE 18:06:27 30° ENE 18:10:08 10° SE
CZ-2C R/B 4.0 18:04:41 10° N 18:09:08 69° WNW 18:13:32 10° SSW
Cosmos 2219 4.2 18:05:03 10° SW 18:10:29 50° WNW 18:15:59 10° NNE
CZ-4 R/B 3.2 18:06:43 10° SSW 18:10:31 37° W 18:14:15 10° NNW
Cosmos 2227 Rocket 2.2 18:06:15 10° SSW 18:11:51 71° ESE 18:17:30 10° NNE
Cosmos 2237 Rocket 2.2 18:06:14 10° NNW 18:11:54 90° SSW 18:17:31 10° SSE
SKYMED 2 3.8 18:08:49 10° N 18:13:11 79° WNW 18:17:30 10° SSW
SL-16 R/B 2.6 18:09:34 10° NNW 18:14:57 42° ENE 18:20:18 10° SE
USA 238 DEB 4.4 18:08:13 10° SW 18:14:58 55° NW 18:21:50 10° NNE
USA 238 4.4 18:08:19 10° SW 18:15:03 55° NW 18:21:56 10° NNE
MOS 1-B Rocket 4.1 18:10:03 10° SSE 18:16:32 85° WSW 18:22:18 10° NNW
FENGYUN 3A 3.9 18:12:05 10° S 18:17:29 77° WSW 18:22:55 10° NNW
Resurs 01 Rocket 3.3 18:19:13 13° E 18:20:30 14° ENE 18:22:49 10° NNE
H-2A R/B 2.8 18:18:20 10° SSE 18:22:10 58° ENE 18:26:02 10° N
Cosmos 2084 Rocket 3.8 18:18:15 10° SW 18:22:37 66° NW 18:26:47 10° NNE
Cosmos 1975 Rocket 4.4 18:20:59 10° NNE 18:24:13 19° ENE 18:26:49 12° ESE
Cosmos 2297 Rocket 2.2 18:20:20 10° SSW 18:25:58 80° ESE 18:31:40 10° NNE
CZ-3 Stage 3 4.1 18:27:51 10° WSW 18:31:04 16° SSW 18:33:07 10° SSE
DNEPR-1 R/B 3.6 18:27:34 10° SW 18:31:45 76° NW 18:36:08 10° NNE
Thor Agena Rocket 4.2 18:27:39 10° NE 18:32:08 30° E 18:36:31 10° SSE
USA 186 3.9 18:38:14 14° NE 18:38:14 14° NE 18:39:07 10° NNE
CZ-2D R/B 4.0 18:33:51 10° SE 18:37:19 32° ENE 18:40:49 10° N
Envisat 3.6 18:32:54 10° SE 18:37:28 35° ENE 18:42:03 10° N
Meteor 1-18 Rocket 4.2 18:33:56 10° N 18:39:29 58° ENE 18:44:56 10° SSE
Cosmos 1812 2.6 18:35:45 10° N 18:39:38 87° E 18:43:31 10° S
USA 32 4.4 18:35:30 10° SSE 18:40:21 41° E 18:45:14 10° NNE
USA 215 3.5 18:34:23 11° ENE 18:40:31 51° SE 18:46:50 10° SSW
SeaSat 1 2.7 18:35:56 10° SE 18:40:37 46° NE 18:45:20 10° NNW
ERS-2 2.0 18:38:36 10° SSE 18:42:16 76° ENE 18:45:59 10° N
Cosmos 1633 2.4 18:42:52 10° S 18:46:24 65° E 18:49:57 10° NNE
Cosmos 2333 Rocket 4.4 18:42:43 10° NW 18:47:27 28° WSW 18:52:07 10° SSW
HJ-1C 3.4 18:44:22 10° SSE 18:47:43 57° ENE 18:51:06 10° N
Cosmos 1378 Rocket 3.5 18:45:01 10° N 18:49:24 67° E 18:53:49 10° SSE
NOSS 3-2 (C) 3.8 18:45:33 10° SW 18:51:29 66° NW 18:58:08 10° NNE
Sich 1 Rocket 3.7 18:48:30 10° S 18:52:52 52° E 18:57:14 10° NNE
Cosmos 2082 4.0 18:48:00 10° SSW 18:53:36 71° WNW 18:59:16 10° NNE
Cosmos 1464 Rocket 3.9 18:48:16 10° N 18:54:26 79° E 19:00:33 10° S
Meteor 1-25 Rocket 4.1 18:49:06 10° S 18:54:37 79° E 19:00:12 10° NNE
Cosmos 1782 Rocket 3.9 18:52:01 10° SSE 18:56:11 42° E 19:00:23 10° NNE
Tiangong 2 2.5 18:57:40 10° W 19:00:34 32° SSW 19:01:40 24° SSE
Cosmos 1437 Rocket 3.0 18:59:05 10° SSE 19:02:57 46° E 19:06:54 10° NNE
Meteor 2-4 Rocket 4.4 18:58:34 10° N 19:03:45 32° ENE 19:04:43 30° E
FREGAT/IRIS 3.5 19:01:10 10° S 19:04:02 48° W 19:06:56 10° NNW
Cosmos 44 Rocket 3.3 18:59:00 10° NNW 19:04:04 87° NE 19:07:57 18° SE
Cosmos 1939 Rocket 3.9 19:07:20 30° NE 19:07:20 30° NE 19:10:14 10° N
USA 267 3.7 19:11:39 29° E 19:14:31 46° NNE 19:20:41 10° NW
ATLAS CENTAUR R/B 3.6 19:16:46 10° N 19:17:56 13° NNE 19:17:56 13° NNE
CENTAUR R/B 2.4 19:14:04 10° SSW 19:20:05 88° SE 19:26:24 13° NE
Cosmos 1331 Rocket 4.5 19:18:21 10° N 19:23:12 40° ENE 19:23:12 40° ENE
Spot 2 Rocket 3.5 19:27:13 51° E 19:27:30 52° ENE 19:32:26 10° N
Cosmos 2034 Rocket 4.1 19:22:45 10° N 19:29:09 78° W 19:35:29 10° S
Geosat 3.9 19:28:15 44° NE 19:29:41 63° ESE 19:34:39 10° SSW
Cosmos 1048 Rocket 4.0 19:25:30 10° SSW 19:30:51 81° WNW 19:36:10 10° NNE
Iridium 4 Rocket 4.3 19:30:01 10° NNW 19:34:45 46° W 19:39:05 10° SSW
SJ-6B 4.3 19:36:42 10° SSW 19:40:11 35° W 19:43:44 10° NNW
Cosmos 1943 3.9 19:36:46 10° NNW 19:41:13 38° NE 19:41:13 38° NE
Cosmos 1634 Rocket 3.9 19:37:25 10° N 19:43:30 57° E 19:43:38 57° E
Cosmos 2346 Rocket 4.3 19:38:45 10° S 19:44:57 77° E 19:51:07 10° N
Cosmos 921 Rocket 3.7 19:40:48 10° NNW 19:45:14 54° WSW 19:46:58 33° SSW
Resurs 1-3 3.7 19:47:28 75° NW 19:47:28 75° NW 19:51:35 10° NNW
Cosmos 1816 Rocket 4.5 19:40:56 10° S 19:47:18 87° W 19:53:42 10° N
SL-8 R/B 3.8 19:43:49 10° WSW 19:48:35 70° NNW 19:48:35 70° NNW
CZ-4C R/B 3.3 19:42:46 10° NNW 19:49:19 41° NE 19:49:51 40° NE
Meteor 1-13 Rocket 4.1 19:50:19 10° NNW 19:55:53 82° W 19:57:02 57° S
Resurs 01 Rocket 2.0 19:56:47 62° WNW 19:56:47 62° WNW 20:00:52 10° NNW
SL-16 R/B 3.9 19:54:01 10° NW 19:58:53 30° WSW 20:03:43 10° SSW
Cosmos 1975 Rocket 4.3 19:58:06 10° NNW 20:02:15 40° W 20:04:06 26° SW
Cosmos 1603 4.0 20:11:55 10° NNW 20:17:18 63° W 20:17:18 63° W
SeaSat 1 4.4 20:15:29 16° SSW 20:18:17 26° WSW 20:22:22 10° NW
USA 215 3.7 20:21:44 43° NNE 20:23:33 55° NNW 20:29:53 10° WSW
H-2A R/B 4.4 20:43:15 16° N 20:43:15 16° N 20:44:17 10° N
USA 267 3.9 20:58:59 50° WNW 20:58:59 50° WNW 21:03:52 10° NW
CENTAUR R/B 4.4 21:06:25 10° W 21:11:45 27° NNW 21:13:40 24° N
CZ-4C R/B 4.2 21:31:09 10° NW 21:35:03 35° WNW 21:35:03 35° WNW
